Retour au catalogue

SL-12 DEB

ActifLEO
NORAD 18766·DEBRIS·🇷🇺 Russia

Lancé May 30, 1985 depuis Baikonur Cosmodrome

Loading…

Prochains Passages (prochaines 24 heures)

TLE

FraisSource: Space-Track

Époque: Sep 14, 2026, 03:09 UTC

1 18766U 85042J   26257.13187462  .00002469  00000-0  71762-3 0  9998
2 18766  66.5615 147.0486 0043119 168.6614 349.9003 14.45444476  2743

Suivez SL-12 DEB en temps réel avec AllMySat

Download on the App Store